Location: Kellogg
(38.0159°N, 90.0546°W)
Time: 18:02:32
(UTC+00:00)

ACS3 Solar Sail - Pass Details

Date: 22 August 2024
Orbit: 977 x 1032 km, 97.4° (Epoch: 11 September)

Event Time Altitude Azimuth Distance (km) Brightness Sun altitude
Exits shadow 02:14:30 23° 142° (SE) 1,987 2.9 -17.1°
Maximum altitude 02:18:21 56° 73° (ENE) 1,203 2.0 -17.8°
Drops below altitude 10° 02:24:35 10° 357° (N) 2,839 4.7 -18.8°
Sets 02:27:09 0° 354° (N) 3,801 5.5 -19.2°
